Date String (YYYY-MM-DD hh:mm:ss) UTC,Instrument flags,Ambient pressure (hPa),Sample flow (lpm),Bypass flow (lpm),Sample temperature (°C),Ambient temperature (°C),ASC tube jacket temperature (°C),LED temperature (°C),Box temperature (°C),Sample RH (%),Span deviation,Mass concentration (μg/m³),Mass concentration (μg/m³),Mass concentration (μg/m³)
DateTimeUTC,F1_M11,P_M11,Q1_M11,Q2_M11,T1_M11,T2_M11,T3_M11,T4_M11,T5_M11,U1_M11,ZSPAN_M11,X0_M11,X2_M11,X1_M11
2023-02-25 00:00:00,,0825.5,5.00,0.00,21.8,20.4,00.0,30.6,23.5,08.0,0000.0,0004.77,0000.97,0000.65
2023-02-25 00:01:00,,0825.5,5.01,0.00,21.9,21.5,00.0,30.6,23.8,07.7,0000.0,0004.72,0000.95,0000.64
2023-02-25 00:02:00,,0825.5,5.03,0.00,22.0,22.5,00.0,30.6,24.0,07.7,0000.0,0003.99,0000.90,0000.64
2023-02-25 00:03:00,,0825.5,5.06,0.00,22.2,22.8,00.0,30.7,24.2,07.6,0000.0,0003.19,0000.86,0000.63
2023-02-25 00:04:00,,0825.5,5.01,0.00,22.2,22.3,00.0,30.7,24.1,07.6,0000.0,0003.21,0000.85,0000.63
2023-02-25 00:05:00,,0825.5,5.00,0.00,22.2,21.8,00.0,30.8,24.0,07.7,0000.0,0002.52,0000.84,0000.63
2023-02-25 00:06:00,,0825.5,4.99,0.00,22.2,21.5,00.0,30.8,24.0,07.7,0000.0,0001.53,0000.85,0000.63
2023-02-25 00:07:00,,0825.6,5.03,0.00,22.2,21.2,00.0,30.8,23.9,07.6,0000.0,0001.20,0000.82,0000.63
2023-02-25 00:08:00,,0825.6,4.99,0.00,22.2,20.9,00.0,30.8,23.9,07.6,0000.0,0001.12,0000.79,0000.63
2023-02-25 00:09:00,,0825.6,5.01,0.00,22.2,20.8,00.0,30.8,23.9,07.6,0000.0,0001.07,0000.77,0000.63
2023-02-25 00:10:00,,0825.6,5.00,0.00,22.1,20.6,00.0,30.8,23.8,07.6,0000.0,0001.08,0000.78,0000.64
2023-02-25 00:11:00,,0825.6,5.01,0.00,22.1,20.5,00.0,30.8,23.8,07.6,0000.0,0001.11,0000.80,0000.65
2023-02-25 00:12:00,,0825.6,5.01,0.00,22.1,20.4,00.0,30.8,23.7,07.7,0000.0,0001.14,0000.82,0000.66
2023-02-25 00:13:00,,0825.6,4.99,0.00,22.1,20.3,00.0,30.8,23.6,07.7,0000.0,0001.22,0000.85,0000.67
2023-02-25 00:14:00,,0825.7,5.00,0.00,22.0,20.3,00.0,30.8,23.6,07.7,0000.0,0001.38,0000.89,0000.67
2023-02-25 00:15:00,,0825.7,5.00,0.00,22.0,20.3,00.0,30.8,23.6,07.8,0000.0,0001.40,0000.88,0000.68
2023-02-25 00:16:00,,0825.7,5.00,0.00,22.0,20.3,00.0,30.8,23.5,07.9,0000.0,0001.52,0000.91,0000.67
2023-02-25 00:17:00,,0825.6,5.00,0.00,22.0,20.3,00.0,30.8,23.5,07.8,0000.0,0001.61,0000.91,0000.68
2023-02-25 00:18:00,,0825.7,5.00,0.00,21.9,20.3,00.0,30.8,23.4,07.8,0000.0,0001.64,0000.90,0000.68
2023-02-25 00:19:00,,0825.7,5.03,0.00,21.9,20.3,00.0,30.8,23.4,07.9,0000.0,0001.60,0000.88,0000.68
2023-02-25 00:20:00,,0825.7,5.01,0.00,21.9,20.3,00.0,30.8,23.4,07.9,0000.0,0001.60,0000.88,0000.68
2023-02-25 00:21:00,,0825.7,5.02,0.00,21.9,20.3,00.0,30.7,23.4,07.9,0000.0,0001.65,0000.90,0000.67
2023-02-25 00:22:00,,0825.7,4.97,0.00,21.9,21.1,00.0,30.7,23.7,08.0,0000.0,0001.70,0000.92,0000.66
2023-02-25 00:23:00,,0825.7,5.07,0.00,22.1,22.3,00.0,30.7,24.0,08.0,0000.0,0001.72,0000.92,0000.65
2023-02-25 00:24:00,,0826.2,5.01,0.00,22.2,23.0,00.0,30.7,24.2,07.9,0000.0,0001.71,0000.91,0000.65
2023-02-25 00:25:00,,0825.7,5.04,0.00,22.2,22.6,00.0,30.8,24.2,07.8,0000.0,0001.64,0000.90,0000.65
2023-02-25 00:26:00,,0825.8,4.98,0.00,22.3,22.1,00.0,30.8,24.1,07.7,0000.0,0001.62,0000.91,0000.65
2023-02-25 00:27:00,,0825.8,4.99,0.00,22.3,21.6,00.0,30.9,24.0,07.7,0000.0,0001.60,0000.91,0000.65
2023-02-25 00:28:00,,0826.0,4.99,0.00,22.2,21.2,00.0,30.9,24.0,07.8,0000.0,0001.48,0000.89,0000.65
2023-02-25 00:29:00,,0825.9,5.00,0.00,22.2,21.1,00.0,30.9,23.9,07.9,0000.0,0001.41,0000.89,0000.66
2023-02-25 00:30:00,,0825.8,5.01,0.00,22.2,20.9,00.0,30.9,23.9,07.9,0000.0,0001.59,0000.92,0000.66
2023-02-25 00:31:00,,0825.8,5.00,0.00,22.2,20.7,00.0,30.9,23.8,07.9,0000.0,0001.78,0000.97,0000.67
2023-02-25 00:32:00,,0825.8,4.99,0.00,22.1,20.6,00.0,30.9,23.7,07.9,0000.0,0001.82,0000.97,0000.67
2023-02-25 00:33:00,,0825.7,4.99,0.00,22.1,20.4,00.0,30.9,23.6,07.9,0000.0,0001.86,0000.97,0000.66
2023-02-25 00:34:00,,0825.7,4.99,0.00,22.1,20.3,00.0,30.9,23.6,07.9,0000.0,0001.83,0000.96,0000.66
2023-02-25 00:35:00,,0825.7,5.01,0.00,22.0,20.2,00.0,30.9,23.6,07.7,0000.0,0001.82,0000.96,0000.66
2023-02-25 00:36:00,,0825.7,5.01,0.00,22.0,20.1,00.0,30.8,23.5,07.7,0000.0,0001.72,0000.93,0000.66
2023-02-25 00:37:00,,0825.7,5.01,0.00,22.0,20.0,00.0,30.8,23.5,07.8,0000.0,0001.78,0000.95,0000.67
2023-02-25 00:38:00,,0825.7,4.99,0.00,21.9,20.0,00.0,30.8,23.4,07.9,0000.0,0001.81,0000.94,0000.67
2023-02-25 00:39:00,,0825.7,5.01,0.00,21.9,20.0,00.0,30.8,23.4,07.9,0000.0,0001.94,0000.98,0000.68
2023-02-25 00:40:00,,0825.8,5.00,0.00,21.9,20.2,00.0,30.8,23.4,08.0,0000.0,0001.98,0001.00,0000.69
2023-02-25 00:41:00,,0826.1,4.99,0.00,22.0,21.3,00.0,30.7,23.7,08.0,0000.0,0001.81,0000.98,0000.70
2023-02-25 00:42:00,,0825.8,4.95,0.00,22.1,22.5,00.0,30.7,24.0,07.6,0000.0,0001.67,0000.95,0000.69
2023-02-25 00:43:00,,0825.9,4.98,0.00,22.2,22.8,00.0,30.8,24.1,07.6,0000.0,0001.61,0000.94,0000.68
2023-02-25 00:44:00,,0825.9,5.00,0.00,22.2,22.3,00.0,30.8,24.1,07.9,0000.0,0001.58,0000.94,0000.70
2023-02-25 00:45:00,,0825.9,5.01,0.00,22.2,21.8,00.0,30.9,24.0,07.8,0000.0,0001.73,0000.96,0000.70
2023-02-25 00:46:00,,0825.9,5.00,0.00,22.2,21.4,00.0,30.9,23.9,08.0,0000.0,0001.74,0000.97,0000.71
2023-02-25 00:47:00,,0825.9,4.99,0.00,22.2,21.1,00.0,30.9,23.8,08.1,0000.0,0001.85,0001.02,0000.72
2023-02-25 00:48:00,,0825.9,5.01,0.00,22.1,20.9,00.0,30.9,23.7,07.8,0000.0,0001.84,0001.02,0000.72
2023-02-25 00:49:00,,0825.9,5.00,0.00,22.1,20.7,00.0,30.9,23.7,07.9,0000.0,0001.81,0001.04,0000.72
2023-02-25 00:50:00,,0826.0,4.99,0.00,22.1,20.5,00.0,30.9,23.7,07.9,0000.0,0001.72,0001.03,0000.72
2023-02-25 00:51:00,,0826.0,5.01,0.00,22.1,20.4,00.0,30.9,23.6,08.1,0000.0,0001.78,0001.02,0000.72
2023-02-25 00:52:00,,0826.0,5.00,0.00,22.0,20.2,00.0,30.9,23.5,08.1,0000.0,0001.84,0001.04,0000.74
2023-02-25 00:53:00,,0826.0,4.99,0.00,22.0,20.1,00.0,30.8,23.5,08.2,0000.0,0002.13,0001.07,0000.77
2023-02-25 00:54:00,,0826.0,5.01,0.00,21.9,20.0,00.0,30.8,23.4,08.0,0000.0,0002.31,0001.10,0000.80
2023-02-25 00:55:00,,0826.1,5.01,0.00,21.9,19.9,00.0,30.8,23.4,08.1,0000.0,0002.37,0001.10,0000.81
2023-02-25 00:56:00,,0826.1,5.00,0.00,21.9,19.9,00.0,30.8,23.3,08.1,0000.0,0002.88,0001.10,0000.83
2023-02-25 00:57:00,,0826.1,4.99,0.00,21.8,20.0,00.0,30.7,23.4,08.3,0000.0,0003.62,0001.09,0000.85
2023-02-25 00:58:00,,0826.2,5.01,0.00,21.9,21.1,00.0,30.7,23.7,08.0,0000.0,0003.58,0001.07,0000.85
2023-02-25 00:59:00,,0826.2,4.93,0.00,22.0,22.3,00.0,30.7,24.0,08.1,0000.0,0003.58,0001.08,0000.86
